| time (UTC) | temp F | wind direction | speed knots | gust knots | rain 1hr in | rain 24hr in | rain mn in | humidity % | barometer mb |
| 20260505102005 | 51 | 328 | 0.0 | 0.0 | 0.00 | 0.00 | 0.00 | 94 | 1011.3 |
| 20260505101005 | 51 | 328 | 0.0 | 0.0 | 0.00 | 0.00 | 0.00 | 93 | 1011.3 |
| 20260505095006 | 52 | 328 | 0.0 | 0.0 | 0.00 | 0.00 | 0.00 | 93 | 1010.9 |
| 20260505094005 | 52 | 328 | 0.0 | 0.0 | 0.00 | 0.00 | 0.00 | 93 | 1010.9 |
| 20260505093005 | 52 | 328 | 0.0 | 0.0 | 0.00 | 0.00 | 0.00 | 93 | 1010.8 |
| 20260505092006 | 52 | 328 | 0.0 | 0.0 | 0.00 | 0.00 | 0.00 | 93 | 1010.8 |
| 20260505091005 | 52 | 328 | 0.0 | 0.0 | 0.00 | 0.00 | 0.00 | 92 | 1010.8 |
| 20260505090005 | 53 | 328 | 0.0 | 0.0 | 0.00 | 0.00 | 0.00 | 92 | 1010.3 |
| 20260505082005 | 54 | 328 | 0.0 | 0.0 | 0.00 | 0.00 | 0.00 | 91 | 1010.3 |
| 20260505081004 | 54 | 328 | 0.0 | 0.0 | 0.00 | 0.00 | 0.00 | 90 | 1010.3 |
| 20260505080005 | 55 | 328 | 0.0 | 0.0 | 0.00 | 0.00 | 0.00 | 90 | 1010.3 |
| 20260505075005 | 55 | 328 | 0.0 | 0.0 | 0.00 | 0.00 | 0.00 | 89 | 1010.2 |
| 20260505074005 | 55 | 328 | 0.0 | 0.0 | 0.00 | 0.00 | 0.00 | 89 | 1010.2 |
| 20260505073005 | 56 | 328 | 0.0 | 0.0 | 0.00 | 0.00 | 0.00 | 88 | 1009.6 |
| 20260505072005 | 56 | 328 | 0.0 | 0.0 | 0.00 | 0.00 | 0.00 | 87 | 1009.6 |
| 20260505071005 | 56 | 328 | 0.0 | 1.7 | 0.00 | 0.00 | 0.00 | 87 | 1009.6 |
| 20260505070005 | 57 | 329 | 0.9 | 1.7 | 0.00 | 0.00 | 0.00 | 86 | 1009.6 |
| 20260505065005 | 57 | 123 | 0.0 | 1.7 | 0.00 | 0.00 | 0.00 | 86 | 1009.2 |
| 20260505064005 | 57 | 123 | 0.0 | 0.0 | 0.00 | 0.00 | 0.00 | 85 | 1009.2 |
| 20260505063005 | 58 | 123 | 0.0 | 0.0 | 0.00 | 0.00 | 0.00 | 85 | 1009.2 |
| 20260505062005 | 58 | 123 | 0.0 | 0.9 | 0.00 | 0.00 | 0.00 | 84 | 1009.2 |
| 20260505061005 | 58 | 123 | 0.0 | 1.7 | 0.00 | 0.00 | 0.00 | 83 | 1009.2 |
| 20260505060004 | 59 | 259 | 0.0 | 0.0 | 0.00 | 0.00 | 0.00 | 84 | 1009.0 |
| 20260505055005 | 59 | 259 | 0.9 | 2.6 | 0.00 | 0.00 | 0.00 | 83 | 1009.0 |
| 20260505054005 | 60 | 290 | 1.7 | 4.3 | 0.00 | 0.00 | 0.00 | 82 | 1009.0 |
| 20260505053005 | 60 | 288 | 1.7 | 2.6 | 0.00 | 0.00 | 0.00 | 82 | 1009.0 |
| 20260505041005 | 64 | 312 | 0.0 | 0.0 | 0.00 | 0.00 | 0.00 | 73 | 1007.7 |
| 20260505040005 | 65 | 312 | 0.0 | 0.0 | 0.00 | 0.00 | 0.00 | 72 | 1007.7 |
| 20260505035007 | 66 | 312 | 0.0 | 0.0 | 0.00 | 0.00 | 0.00 | 67 | 1007.4 |
| 20260505034007 | 66 | 312 | 0.0 | 0.0 | 0.00 | 0.00 | 0.00 | 65 | 1007.4 |
| 20260505033008 | 67 | 312 | 0.0 | 0.0 | 0.00 | 0.00 | 0.00 | 64 | 1007.4 |
| 20260505032007 | 68 | 312 | 0.0 | 0.0 | 0.00 | 0.00 | 0.00 | 62 | 1007.4 |
| 20260505031008 | 70 | 312 | 0.0 | 0.0 | 0.00 | 0.00 | 0.00 | 61 | 1007.1 |
| 20260505030007 | 71 | 312 | 0.0 | 0.0 | 0.00 | 0.00 | 0.00 | 56 | 1007.1 |
| 20260505025008 | 72 | 312 | 0.0 | 0.0 | 0.00 | 0.00 | 0.00 | 54 | 1007.1 |
| 20260505024007 | 74 | 312 | 0.0 | 0.9 | 0.00 | 0.00 | 0.00 | 51 | 1007.1 |
| 20260505023008 | 75 | 312 | 0.9 | 2.6 | 0.00 | 0.00 | 0.00 | 48 | 1007.1 |
| 20260505022008 | 75 | 304 | 0.9 | 2.6 | 0.00 | 0.00 | 0.00 | 46 | 1007.1 |
| 20260505021008 | 76 | 279 | 1.7 | 5.2 | 0.00 | 0.00 | 0.00 | 45 | 1007.2 |
| 20260505020007 | 76 | 283 | 1.7 | 4.3 | 0.00 | 0.00 | 0.00 | 46 | 1007.1 |
| 20260505014008 | 77 | 305 | 1.7 | 4.3 | 0.00 | 0.00 | 0.00 | 41 | 1007.1 |
| 20260505013007 | 78 | 303 | 2.6 | 7.0 | 0.00 | 0.00 | 0.00 | 39 | 1007.1 |
| 20260505012007 | 78 | 295 | 3.5 | 7.8 | 0.00 | 0.00 | 0.00 | 39 | 1007.3 |
| 20260505011008 | 78 | 280 | 4.3 | 10.4 | 0.00 | 0.00 | 0.00 | 39 | 1007.3 |
| 20260505004007 | 78 | 294 | 2.6 | 8.7 | 0.00 | 0.00 | 0.00 | 39 | 1007.3 |
| 20260505003008 | 79 | 304 | 2.6 | 10.4 | 0.00 | 0.00 | 0.00 | 40 | 1007.2 |
| 20260505002007 | 79 | 288 | 6.1 | 10.4 | 0.00 | 0.00 | 0.00 | 39 | 1007.2 |
| 20260505001007 | 80 | 271 | 5.2 | 10.4 | 0.00 | 0.00 | 0.00 | 37 | 1007.2 |
| 20260505000007 | 80 | 284 | 4.3 | 8.7 | 0.00 | 0.00 | 0.00 | 37 | 1007.4 |
| 20260504235008 | 80 | 301 | 3.5 | 7.8 | 0.00 | 0.00 | 0.00 | 38 | 1007.4 |
| 20260504234007 | 80 | 280 | 2.6 | 8.7 | 0.00 | 0.00 | 0.00 | 36 | 1007.4 |
| 20260504233006 | 81 | 298 | 3.5 | 10.4 | 0.00 | 0.00 | 0.00 | 35 | 1007.4 |
| 20260504232008 | 81 | 301 | 4.3 | 10.4 | 0.00 | 0.00 | 0.00 | 35 | 1007.4 |
| 20260504231008 | 82 | 308 | 5.2 | 11.3 | 0.00 | 0.00 | 0.00 | 32 | 1007.4 |
| 20260504230006 | 82 | 280 | 4.3 | 10.4 | 0.00 | 0.00 | 0.00 | 33 | 1007.7 |
| 20260504225007 | 82 | 300 | 4.3 | 8.7 | 0.00 | 0.00 | 0.00 | 36 | 1007.7 |
| 20260504224006 | 82 | 274 | 5.2 | 10.4 | 0.00 | 0.00 | 0.00 | 36 | 1007.7 |
| 20260504223007 | 82 | 267 | 3.5 | 10.4 | 0.00 | 0.00 | 0.00 | 38 | 1007.8 |
| 20260504222006 | 82 | 275 | 7.0 | 10.4 | 0.00 | 0.00 | 0.00 | 35 | 1008.1 |
| 20260504221007 | 82 | 296 | 6.1 | 10.4 | 0.00 | 0.00 | 0.00 | 37 | 1008.1 |
| 20260504220006 | 82 | 276 | 2.6 | 13.0 | 0.00 | 0.00 | 0.00 | 35 | 1008.1 |
| 20260504215007 | 82 | 300 | 3.5 | 10.4 | 0.00 | 0.00 | 0.00 | 36 | 1008.1 |
| 20260504214006 | 82 | 263 | 4.3 | 10.4 | 0.00 | 0.00 | 0.00 | 36 | 1008.1 |
| 20260504212007 | 81 | 307 | 5.2 | 11.3 | 0.00 | 0.00 | 0.00 | 36 | 1008.2 |
| 20260504211008 | 81 | 288 | 5.2 | 8.7 | 0.00 | 0.00 | 0.00 | 38 | 1008.3 |
| 20260504204006 | 80 | 327 | 5.2 | 10.4 | 0.00 | 0.00 | 0.00 | 35 | 1008.4 |
| 20260504203007 | 81 | 288 | 6.1 | 10.4 | 0.00 | 0.00 | 0.00 | 37 | 1008.4 |
| 20260504202007 | 81 | 316 | 5.2 | 10.4 | 0.00 | 0.00 | 0.00 | 40 | 1008.5 |
| 20260504201006 | 80 | 274 | 4.3 | 7.0 | 0.00 | 0.00 | 0.00 | 43 | 1008.5 |
| 20260504200008 | 79 | 330 | 5.2 | 10.4 | 0.00 | 0.00 | 0.00 | 41 | 1008.7 |
| 20260504195005 | 79 | 292 | 4.3 | 10.4 | 0.00 | 0.00 | 0.00 | 44 | 1008.7 |
| 20260504194006 | 79 | 269 | 5.2 | 10.4 | 0.00 | 0.00 | 0.00 | 42 | 1008.8 |
| 20260504192006 | 78 | 269 | 6.1 | 10.4 | 0.00 | 0.00 | 0.00 | 43 | 1008.9 |
| 20260504191007 | 78 | 267 | 4.3 | 10.4 | 0.00 | 0.00 | 0.00 | 42 | 1008.9 |
| 20260504190006 | 78 | 274 | 2.6 | 7.8 | 0.00 | 0.00 | 0.00 | 41 | 1008.9 |
| 20260504184006 | 78 | 274 | 4.3 | 8.7 | 0.00 | 0.00 | 0.00 | 43 | 1009.1 |
| 20260504183006 | 78 | 337 | 1.7 | 6.1 | 0.00 | 0.00 | 0.00 | 43 | 1009.1 |
| 20260504182006 | 77 | 322 | 3.5 | 5.2 | 0.00 | 0.00 | 0.00 | 42 | 1009.1 |
| 20260504181007 | 77 | 294 | 4.3 | 8.7 | 0.00 | 0.00 | 0.00 | 45 | 1009.0 |
| 20260504180006 | 77 | 327 | 2.6 | 8.7 | 0.00 | 0.00 | 0.00 | 44 | 1009.0 |
| 20260504175007 | 76 | 313 | 3.5 | 8.7 | 0.00 | 0.00 | 0.00 | 44 | 1009.0 |
| 20260504174006 | 76 | 354 | 1.7 | 8.7 | 0.00 | 0.00 | 0.00 | 49 | 1009.0 |
| 20260504173007 | 75 | 272 | 3.5 | 8.7 | 0.00 | 0.00 | 0.00 | 51 | 1009.1 |
| 20260504172006 | 75 | 284 | 2.6 | 4.3 | 0.00 | 0.00 | 0.00 | 54 | 1009.1 |
| 20260504171007 | 73 | 279 | 3.5 | 5.2 | 0.00 | 0.00 | 0.00 | 54 | 1009.1 |
| 20260504151006 | 55 | 337 | 0.0 | 0.0 | 0.00 | 0.00 | 0.00 | 91 | 1008.9 |